COSMOS 886 DEB, 9654

Orbit data source: Space-Track

COSMOS 886 DEB, 9654 is space debris in LEO originally from a launch on Mon, 27 Dec 1976 UTC launched from the Tyuratam Missile And Space Complex (TTMTR). Debris objects in space refer to the collection of defunct objects orbiting the Earth. Examples of debris include non-operational satellites, rocket bodies, and fragments generated from explosions, collisions, or faulty payload assembly.

Loading next visibility...
Identifier
9654, 1976-126L
Orbit
LEO
Country
Flag of CISCIS
Related business
Manufacturer
Unknown
Mission
Spacecraft
Bus & Motor
Unknown
Mass
Unknown
Launch date (UTC)
1976-12-27 (49 years ago)
Launch vehicle
Unknown
Launch site
Tyuratam Missile And Space Complex (TTMTR)
Object type
Payload
Rocket body
Debris
Shape & HBR
Unknown shape, 0.3 m
Radar Cross Section
Medium (>0.1 m² and <1 m²)

Expand to show TLE details & history
Last TLE update: 16 hours ago

TLE from 16 hours ago
0 COSMOS 886 DEB
1 09654U 76126L   26175.00116815  .00002775  00000-0  10790-2 0  9999
2 09654  65.7706  53.2256 0686083  98.3731 269.5644 13.46887943358412
Epoch: 2026-06-24T00:01Z
TLE epoch observation values (Epoch: 2026-06-24T00:01:40.928Z)
Latitude
-0°
Longitude
140.64041°
Altitude
1,124.583 km
Speed
7.272 km/s
True Right ascension
03h 32m 54s
True Declination
0° 00' 00"
Sunlit
Object was in daylight at epoch
Visualization orbit readout
Latitude
Unknown
Longitude
Unknown
Altitude
Unknown
Speed
Unknown
Apparent Right ascension
Unknown
Apparent Declination
Unknown
Sunlit
N/A
Visualization observer readout
Local Sidereal Time
03:13:30
Azimuth
Unknown
Elevation
Unknown
Doppler factor
Unknown
Orbital elements
Apogee altitude
1,594.11 km
Perigee altitude
570.419 km
Semi-major axis
7,460.402 km
Eccentricity
0.06861
Inclination
65.7706°
RAAN
53.2256°
Arg. of periapsis
98.3731°
True anomaly
261.73228°
Mean anomaly
269.5644°
Eccentric anomaly
265.64478°
Mean motion
3.36822 °/min
Orbital period
106.88 mins
BSTAR
0.001079
Loading maneuver chart data...
Computing Atmospheric mass density...

Documentation

Showing up to 5 results
|